Location: Powder Track
(41.8531°N, 72.3584°W)
Time: 18:39:51
(UTC+00:00)

Vanguard 1 Rocket - Pass Details

Date: 12 August 2021
Orbit: 650 x 4226 km, 34.3° (Epoch: 20 September)

Event Time Altitude Azimuth Distance (km) Brightness Sun altitude
Rises 07:43:49 0° 176° (S) 7,484 11.7 -21.2°
Reaches altitude 10° 07:52:28 10° 157° (SSE) 7,015 11.7 -20.0°
Maximum altitude 08:04:28 16° 127° (SE) 6,873 12.0 -18.4°
Drops below altitude 10° 08:16:42 10° 98° (E) 7,323 12.6 -16.6°
Sets 08:25:46 0° 81° (E) 7,991 13.3 -15.3°
